Winfield, KS

1:59 PM CST on December 13, 2017 (GMT -0600)
Strother

Weather History for KWLD - April, 2013

Change the Weather History Date:

Friday, April 26, 2013

  Actual Average Record
Temperature  
Mean Temperature 55 °F -  
Max Temperature 59 °F 69 °F 87 °F (2014)
Min Temperature 51 °F 47 °F 36 °F (2005)
Degree Days  
Heating Degree Days 10    
Growing Degree Days 5 (Base 50)    
Moisture  
Dew Point 48 °F    
Average Humidity 85    
Maximum Humidity 100    
Minimum Humidity 42    
Precipitation  
Precipitation 0.77 in - - ()
Sea Level Pressure  
Sea Level Pressure 30.11 in    
Wind  
Wind Speed 12 mph (ESE)    
Max Wind Speed 18 mph    
Max Gust Speed 29 mph    
Visibility 7 miles    
Events Rain , Thunderstorm    
Averages and records for this station are not official NWS values.
T = Trace of Precipitation, MM = Missing Value Source: NWS Daily Summary

Daily Weather History Graph

Daily Weather History Graph

Search for Another Location

Airport or City:

Trip Planner

Search our weather history database for the weather conditions in past years. The results will help you decide how hot, cold, wet, or windy it might be!

Date:

Astronomy

Apr. 26, 2013 Rise Set
Actual Time 6:39 AM CDT 8:13 PM CDT
Civil Twilight 6:11 AM CDT 8:40 PM CDT
Nautical Twilight 5:38 AM CDT 9:14 PM CDT
Astronomical Twilight 5:03 AM CDT 9:49 PM CDT
Moon 9:35 PM CDT (4/26) 7:08 AM CDT (4/26)
Length of Visible Light 14h 29m
Length of Day
13h 34m
Full, 99% of the Moon is Illuminated
Apr 26
Full
May 2
Last Quarter
May 9
New
May 17
First Quarter
May 24
Full

Hourly Weather History & Observations

Time (CDT) Temp. Dew Point Humidity Pressure Visibility Wind Dir Wind Speed Gust Speed Precip Events Conditions
12:54 AM 59.0 °F 36.0 °F 42% 30.11 in 10.0 mi South 13.8 mph - N/A   Partly Cloudy
1:54 AM 59.0 °F 37.9 °F 46% 30.14 in 10.0 mi SW 10.4 mph - N/A   Partly Cloudy
2:54 AM 55.9 °F 41.0 °F 57% 30.10 in 10.0 mi South 12.7 mph - 0.01 in   Mostly Cloudy
3:54 AM 55.9 °F 44.1 °F 64% 30.06 in 10.0 mi South 15.0 mph - 0.00 in Rain Light Rain
4:41 AM 57.2 °F 44.6 °F 63% 30.09 in 10.0 mi South 13.8 mph - 0.00 in Thunderstorm Overcast
4:54 AM 57.0 °F 44.1 °F 62% 30.07 in 10.0 mi South 11.5 mph - 0.00 in   Overcast
5:17 AM 57.2 °F 42.8 °F 59% 30.10 in 10.0 mi South 11.5 mph - N/A Thunderstorm Overcast
5:54 AM 55.9 °F 45.0 °F 67% 30.09 in 9.0 mi ESE 4.6 mph - 0.01 in Rain Light Rain
6:16 AM 55.4 °F 46.4 °F 72% 30.10 in 10.0 mi East 5.8 mph - 0.00 in Thunderstorm Overcast
6:37 AM 53.6 °F 48.2 °F 82% 30.09 in 10.0 mi East 9.2 mph - 0.00 in Rain Light Rain
6:52 AM 53.6 °F 46.4 °F 77% 30.09 in 10.0 mi East 9.2 mph - 0.00 in Thunderstorm Overcast
6:54 AM 54.0 °F 46.9 °F 77% 30.08 in 10.0 mi East 10.4 mph - 0.00 in Thunderstorm Overcast
7:38 AM 51.8 °F 48.2 °F 88% 30.16 in 1.8 mi East 10.4 mph - 0.23 in Rain , Thunderstorm Heavy Thunderstorms and Rain
7:50 AM 51.8 °F 48.2 °F 88% 30.15 in 3.0 mi East 11.5 mph - 0.31 in Rain , Thunderstorm Light Thunderstorms and Rain
7:54 AM 51.1 °F 48.9 °F 92% 30.15 in 4.0 mi East 12.7 mph - 0.33 in Rain , Thunderstorm Thunderstorms and Rain
8:03 AM 51.8 °F 48.2 °F 88% 30.15 in 1.8 mi East 15.0 mph - 0.12 in Rain , Thunderstorm Heavy Thunderstorms and Rain
8:17 AM 51.8 °F 48.2 °F 88% 30.14 in 3.0 mi East 12.7 mph 21.9 mph 0.25 in Rain , Thunderstorm Thunderstorms and Rain
8:54 AM 51.1 °F 48.9 °F 92% 30.14 in 5.0 mi East 11.5 mph - 0.33 in Rain Light Rain
9:54 AM 52.0 °F 48.0 °F 86% 30.14 in 10.0 mi ESE 10.4 mph 23.0 mph 0.00 in Rain Light Rain
10:54 AM 52.0 °F 48.0 °F 86% 30.13 in 10.0 mi ESE 18.4 mph 27.6 mph 0.00 in   Overcast
11:54 AM 52.0 °F 48.0 °F 86% 30.14 in 10.0 mi ESE 16.1 mph 28.8 mph N/A   Overcast
12:54 PM 52.0 °F 46.9 °F 83% 30.13 in 10.0 mi ESE 18.4 mph 24.2 mph N/A   Overcast
1:54 PM 53.1 °F 46.9 °F 80% 30.12 in 10.0 mi ESE 16.1 mph 27.6 mph N/A   Overcast
2:18 PM 51.8 °F 48.2 °F 88% 30.12 in 10.0 mi SE 17.3 mph - N/A   Overcast
2:30 PM 51.8 °F 48.2 °F 88% 30.11 in 10.0 mi SE 17.3 mph 25.3 mph N/A   Overcast
2:54 PM 52.0 °F 48.9 °F 89% 30.11 in 6.0 mi ESE 16.1 mph 24.2 mph N/A   Overcast
3:12 PM 51.8 °F 48.2 °F 88% 30.11 in 2.5 mi SE 15.0 mph 20.7 mph 0.01 in Rain Light Rain
3:37 PM 51.8 °F 50.0 °F 94% 30.11 in 1.8 mi SE 11.5 mph - 0.02 in Rain Light Rain
3:49 PM 51.8 °F 50.0 °F 94% 30.11 in 2.0 mi ESE 8.1 mph 17.3 mph 0.02 in Rain Light Rain
3:54 PM 51.1 °F 50.0 °F 96% 30.10 in 2.0 mi ESE 9.2 mph 17.3 mph 0.03 in Rain Light Rain
4:04 PM 51.8 °F 50.0 °F 94% 30.10 in 1.8 mi ESE 9.2 mph - 0.00 in Rain Light Rain
4:21 PM 51.8 °F 51.8 °F 100% 30.10 in 2.0 mi ESE 8.1 mph - 0.01 in Rain Light Rain
4:54 PM 52.0 °F 51.1 °F 97% 30.10 in 2.0 mi ESE 8.1 mph - 0.04 in Rain Light Rain
5:19 PM 51.8 °F 51.8 °F 100% 30.09 in 3.0 mi ESE 9.2 mph - 0.01 in Rain Light Rain
5:54 PM 52.0 °F 51.1 °F 97% 30.09 in 9.0 mi East 10.4 mph - 0.01 in   Overcast
6:54 PM 52.0 °F 51.1 °F 97% 30.10 in 10.0 mi East 6.9 mph - N/A   Overcast
7:14 PM 51.8 °F 51.8 °F 100% 30.10 in 1.8 mi East 8.1 mph - N/A   Overcast
7:32 PM 51.8 °F 51.8 °F 100% 30.11 in 2.0 mi East 5.8 mph - N/A   Overcast
7:54 PM 51.1 °F 51.1 °F 100% 30.10 in 2.5 mi East 6.9 mph - 0.01 in   Overcast
8:02 PM 51.8 °F 51.8 °F 100% 30.10 in 4.0 mi East 8.1 mph - N/A   Overcast
8:54 PM 51.1 °F 51.1 °F 100% 30.10 in 10.0 mi East 6.9 mph - N/A   Overcast
9:54 PM 51.1 °F 50.0 °F 96% 30.12 in 10.0 mi ENE 6.9 mph - 0.00 in   Overcast
10:54 PM 51.1 °F 50.0 °F 96% 30.12 in 10.0 mi ENE 8.1 mph - N/A   Overcast
11:54 PM 51.1 °F 50.0 °F 96% 30.12 in 10.0 mi ENE 9.2 mph - N/A   Overcast